📊 Raw Sensor Data
Showing records 33126 to 33150 of 84,755 total
| ID | Distance (ft) | Battery V | Battery A | Int Temp (°F) | Int Humid (%) | Ext Temp (°F) | Solar V | RSSI | SNR | Time Stamp |
|---|---|---|---|---|---|---|---|---|---|---|
| 51642 | 14.4 | 4.01 | -5 | 61 | 45 | 62 | 0.00 | -72 | 7 | 09/10/2025 11:15 PM |
| 51641 | 14.4 | 4.01 | -5 | 61 | 45 | 62 | 0.00 | -71 | 7 | 09/10/2025 11:00 PM |
| 51640 | 14.4 | 4.01 | -5 | 61 | 45 | 62 | 0.00 | -72 | 7 | 09/10/2025 10:45 PM |
| 51639 | 14.3 | 3.96 | -5 | 61 | 45 | 62 | 0.00 | -72 | 8 | 09/10/2025 10:30 PM |
| 51638 | 14.4 | 3.96 | -5 | 61 | 46 | 62 | 0.10 | -73 | 9 | 09/10/2025 10:15 PM |
| 51637 | 14.4 | 3.96 | -5 | 62 | 46 | 62 | 0.10 | -74 | 8 | 09/10/2025 10:00 PM |
| 51636 | 14.4 | 3.96 | -5 | 62 | 46 | 63 | 0.10 | -74 | 7 | 09/10/2025 09:45 PM |
| 51635 | 14.4 | 3.96 | -5 | 62 | 46 | 63 | 0.00 | -71 | 8 | 09/10/2025 09:30 PM |
| 51634 | 14.4 | 3.96 | -5 | 63 | 47 | 63 | 0.00 | -72 | 8 | 09/10/2025 09:15 PM |
| 51633 | 14.4 | 4.02 | -5 | 63 | 48 | 63 | 0.00 | -73 | 8 | 09/10/2025 09:00 PM |
| 51632 | 14.4 | 4.02 | -5 | 64 | 48 | 64 | 0.00 | -73 | 8 | 09/10/2025 08:45 PM |
| 51631 | 14.4 | 4.02 | -5 | 64 | 49 | 64 | 0.10 | -73 | 7 | 09/10/2025 08:30 PM |
| 51630 | 14.4 | 4.02 | -5 | 65 | 50 | 65 | 0.10 | -73 | 8 | 09/10/2025 08:15 PM |
| 51629 | 14.4 | 3.97 | -5 | 66 | 51 | 66 | 0.00 | -72 | 7 | 09/10/2025 08:00 PM |
| 51628 | 14.4 | 3.97 | -5 | 68 | 52 | 67 | 0.00 | -72 | 7 | 09/10/2025 07:45 PM |
| 51627 | 14.4 | 3.96 | -9 | 71 | 53 | 68 | 3.30 | -72 | 6 | 09/10/2025 07:30 PM |
| 51626 | 14.4 | 3.97 | -5 | 75 | 53 | 71 | 4.50 | -73 | 8 | 09/10/2025 07:15 PM |
| 51625 | 14.4 | 4.04 | 0 | 79 | 52 | 75 | 4.50 | -73 | 8 | 09/10/2025 07:00 PM |
| 51624 | 14.4 | 4.05 | 6 | 82 | 51 | 74 | 4.50 | -72 | 8 | 09/10/2025 06:45 PM |
| 51623 | 14.5 | 4.05 | 29 | 85 | 50 | 77 | 4.50 | -73 | 8 | 09/10/2025 06:30 PM |
| 51622 | 14.5 | 4.02 | 0 | 87 | 49 | 77 | 5.10 | -70 | 8 | 09/10/2025 06:15 PM |
| 51621 | 14.5 | 4.02 | 0 | 89 | 48 | 79 | 5.10 | -76 | 8 | 09/10/2025 06:00 PM |
| 51620 | 14.6 | 4.02 | 5 | 90 | 48 | 79 | 5.10 | -72 | 7 | 09/10/2025 05:45 PM |
| 51619 | 14.7 | 4.02 | 0 | 91 | 47 | 80 | 5.10 | -71 | 7 | 09/10/2025 05:30 PM |
| 51618 | 14.7 | 4.13 | 0 | 92 | 47 | 80 | 5.10 | -70 | 8 | 09/10/2025 05:15 PM |